Weather History for Aswan, Egypt

Change the Weather History Date:

Saturday, March 9, 2013

  Actual Average Record
Temperature  
Mean Temperature 76 °F -  
Max Temperature 87 °F 85 °F 102 °F (2008)
Min Temperature 64 °F 61 °F 53 °F (1997)
Cooling Degree Days 10    
Growing Degree Days 26 (Base 50)    
Moisture  
Dew Point 32 °F    
Average Humidity 19    
Maximum Humidity 28    
Minimum Humidity 8    
Precipitation  
Precipitation 0.00 in 0.00 in - ()
Sea Level Pressure  
Sea Level Pressure 29.94 in    
Wind  
Wind Speed 6 mph ()    
Max Wind Speed 13 mph    
Max Gust Speed -    
Visibility 5.3 miles    
Events      
Averages and records for this station are not official NWS values.
T = Trace of Precipitation, MM = Missing Value Source: Averaged Metar Reports

Daily Weather History Graph

Daily Weather History Graph

Search for Another Location

Airport:

Trip Planner

Search our weather history database for the weather conditions in past years. The results will help you decide how hot, cold, wet, or windy it might be!

Date:

Astronomy

Mar. 09, 2013 Rise Set
Actual Time 6:03 AM EET 5:55 PM EET
Civil Twilight 5:40 AM EET 6:17 PM EET
Nautical Twilight 5:14 AM EET 6:44 PM EET
Astronomical Twilight 4:48 AM EET 7:10 PM EET
Moon 4:01 AM EET (3/9) 3:45 PM EET (3/9)
Length of Visible Light 12h 36m
Length of Day
11h 51m
Waning Crescent, 7% of the Moon is Illuminated
Mar 9
Waning Crescent
Mar 11
New
Mar 19
First Quarter
Mar 27
Full
Apr 3
Last Quarter

Hourly Weather History & Observations

Time (EET) Temp. Dew Point Humidity Pressure Visibility Wind Dir Wind Speed Gust Speed Precip Events Conditions
12:00 AM 73.4 °F 24.8 °F 16% 29.92 in - NW 5.8 mph - N/A   Clear
1:00 AM 73.4 °F 28.4 °F 19% 29.89 in - NW 5.8 mph - N/A   Clear
2:00 AM 71 °F 28 °F 11% 29.89 in 6 mi North 5.8 mph - -  
2:00 AM 71.6 °F 28.4 °F 20% 29.89 in - North 5.8 mph - N/A   Clear
3:00 AM 69.8 °F 28.4 °F 21% 29.89 in - North 5.8 mph - N/A   Clear
4:00 AM 68.0 °F 30.2 °F 24% 29.89 in - North 5.8 mph - N/A   Clear
5:00 AM 66.2 °F 28.4 °F 24% 29.92 in 5.0 mi North 12.7 mph - N/A   Unknown
6:00 AM 64.4 °F 26.6 °F 24% 29.95 in 5.0 mi North 12.7 mph - N/A   Unknown
7:00 AM 66.2 °F 26.6 °F 23% 29.98 in 5.0 mi Calm Calm - N/A   Unknown
8:00 AM 69 °F 28 °F 12% 29.99 in 5 mi NW 4.6 mph - -   Widespread Dust
8:00 AM 68.0 °F 28.4 °F 23% 29.98 in 5.0 mi NW 4.6 mph - N/A   Unknown
9:00 AM 73.4 °F 33.8 °F 23% 30.01 in 5.0 mi North 4.6 mph - N/A   Unknown
10:00 AM 77.0 °F 33.8 °F 21% 30.01 in - North 9.2 mph - N/A   Clear
11:00 AM 78.8 °F 32.0 °F 18% 29.98 in - North 9.2 mph - N/A   Clear
12:00 PM 82.4 °F 35.6 °F 19% 29.98 in - North 9.2 mph - N/A   Clear
1:00 PM 84.2 °F 33.8 °F 16% 29.95 in - North 9.2 mph - N/A   Clear
2:00 PM 86 °F 34 °F 8% 29.89 in 6 mi NW 9.2 mph - -  
2:00 PM 86.0 °F 33.8 °F 15% 29.92 in - NW 9.2 mph - N/A   Clear
3:00 PM 86.0 °F 35.6 °F 17% 29.89 in - North 9.2 mph - N/A   Clear
4:00 PM 86.0 °F 35.6 °F 17% 29.89 in - North 6.9 mph - N/A   Clear
5:00 PM 86.0 °F 32.0 °F 14% 29.89 in - North 8.1 mph - N/A   Clear
6:00 PM 82.4 °F 32.0 °F 16% 29.92 in - North 9.2 mph - N/A   Clear
7:00 PM 78.8 °F 33.8 °F 20% 29.92 in - North 9.2 mph - N/A   Clear
8:00 PM 76 °F 37 °F 15% 29.94 in 6 mi North 6.9 mph - -  
8:00 PM 77.0 °F 37.4 °F 24% 29.95 in - North 6.9 mph - N/A   Clear
9:00 PM 73.4 °F 35.6 °F 25% 29.98 in - North 8.1 mph - N/A   Clear
10:00 PM 71.6 °F 35.6 °F 27% 30.01 in - NNW 8.1 mph - N/A   Clear
11:00 PM 69.8 °F 35.6 °F 28% 30.01 in - NNW 6.9 mph - N/A   Clear